N444JN KBCT-KORL

Flight info

Callsign N444JN
Flight time N/A
Altitude 8000
Route DURRY T347 BAIRN GOOFY7
Aircraft COL4/L-SDGRY/S

Departure

Time N/A
Airport Boca Raton Airport (KBCT)

Arrival

Time 2026-05-06 00:38
Airport Orlando Executive Airport (KORL)
Time Latitude Longitude Altitude Speed Heading
2026-05-05 23:48 26.69955 -80.36670 5453 ft 206 kts 314°
2026-05-05 23:48 26.70935 -80.37836 5208 ft 206 kts 314°
2026-05-05 23:49 26.71920 -80.39008 4965 ft 206 kts 314°
2026-05-05 23:49 26.72924 -80.40134 4706 ft 203 kts 322°
2026-05-05 23:49 26.74160 -80.40872 4451 ft 201 kts 337°
2026-05-05 23:49 26.75431 -80.41536 4203 ft 202 kts 336°
2026-05-05 23:50 26.76701 -80.42197 3954 ft 200 kts 336°
2026-05-05 23:50 26.77954 -80.42849 3708 ft 197 kts 337°
2026-05-05 23:50 26.79180 -80.43488 3469 ft 196 kts 337°
2026-05-05 23:50 26.80416 -80.44130 3225 ft 196 kts 337°
2026-05-05 23:51 26.81648 -80.44772 3017 ft 193 kts 338°
2026-05-05 23:51 26.82828 -80.45389 3010 ft 183 kts 338°
2026-05-05 23:51 26.83969 -80.45981 3003 ft 178 kts 338°
2026-05-05 23:51 26.85083 -80.46562 3000 ft 176 kts 337°
2026-05-05 23:52 26.86179 -80.47134 3008 ft 173 kts 339°
2026-05-05 23:52 26.87272 -80.47702 3008 ft 173 kts 339°
2026-05-05 23:52 26.88352 -80.48265 3000 ft 174 kts 339°
2026-05-05 23:52 26.89452 -80.48838 3003 ft 174 kts 339°
2026-05-05 23:53 26.90548 -80.49411 3004 ft 174 kts 338°
2026-05-05 23:53 26.91646 -80.49984 3000 ft 173 kts 338°
2026-05-05 23:53 26.92763 -80.50566 2853 ft 181 kts 340°
2026-05-05 23:53 26.93918 -80.51169 2692 ft 186 kts 339°
2026-05-05 23:54 26.95094 -80.51783 2525 ft 187 kts 338°
2026-05-05 23:54 26.96256 -80.52391 2519 ft 182 kts 339°
2026-05-05 23:54 26.97402 -80.52990 2520 ft 181 kts 339°
2026-05-05 23:54 26.98555 -80.53592 2517 ft 184 kts 340°
2026-05-05 23:55 26.99721 -80.54200 2523 ft 185 kts 339°
2026-05-05 23:55 27.00858 -80.54857 2518 ft 186 kts 334°
2026-05-05 23:55 27.01994 -80.55539 2511 ft 184 kts 336°
2026-05-05 23:55 27.03117 -80.56206 2505 ft 181 kts 336°
2026-05-05 23:56 27.04226 -80.56864 2507 ft 180 kts 336°
2026-05-05 23:56 27.05330 -80.57526 2507 ft 179 kts 335°
2026-05-05 23:56 27.06425 -80.58179 2508 ft 178 kts 335°
2026-05-05 23:56 27.07519 -80.58834 2511 ft 179 kts 335°
2026-05-05 23:57 27.08635 -80.59502 2523 ft 185 kts 336°
2026-05-05 23:57 27.09793 -80.60190 2524 ft 191 kts 335°
2026-05-05 23:57 27.10967 -80.60897 2520 ft 191 kts 334°
2026-05-05 23:57 27.12138 -80.61600 2520 ft 191 kts 335°
2026-05-05 23:58 27.13290 -80.62289 2519 ft 190 kts 335°
2026-05-05 23:58 27.14454 -80.62986 2507 ft 188 kts 335°
2026-05-05 23:58 27.15596 -80.63670 2505 ft 184 kts 335°
2026-05-05 23:58 27.16724 -80.64346 2499 ft 183 kts 335°
2026-05-05 23:59 27.17847 -80.65020 2507 ft 183 kts 336°
2026-05-05 23:59 27.18969 -80.65690 2501 ft 182 kts 335°
2026-05-05 23:59 27.20086 -80.66362 2500 ft 181 kts 336°
2026-05-05 23:59 27.21187 -80.67022 2504 ft 179 kts 336°
2026-05-06 00:00 27.22287 -80.67681 2502 ft 180 kts 335°
2026-05-06 00:00 27.23378 -80.68334 2502 ft 180 kts 336°
2026-05-06 00:00 27.24480 -80.68998 2506 ft 179 kts 337°
2026-05-06 00:00 27.25575 -80.69655 2503 ft 178 kts 336°
2026-05-06 00:01 27.26663 -80.70310 2506 ft 177 kts 337°
2026-05-06 00:01 27.27750 -80.70959 2504 ft 177 kts 335°
2026-05-06 00:01 27.28841 -80.71617 2504 ft 179 kts 336°
2026-05-06 00:01 27.29948 -80.72279 2505 ft 181 kts 336°
2026-05-06 00:02 27.31053 -80.72945 2504 ft 180 kts 335°
2026-05-06 00:02 27.32154 -80.73608 2504 ft 180 kts 337°
2026-05-06 00:02 27.33260 -80.74271 2503 ft 180 kts 336°
2026-05-06 00:02 27.34348 -80.74927 2502 ft 179 kts 335°
2026-05-06 00:03 27.35447 -80.75587 2505 ft 179 kts 336°
2026-05-06 00:03 27.36557 -80.76255 2513 ft 182 kts 335°
2026-05-06 00:03 27.37688 -80.76936 2518 ft 186 kts 336°
2026-05-06 00:03 27.38833 -80.77625 2518 ft 186 kts 335°
2026-05-06 00:04 27.39977 -80.78312 2517 ft 186 kts 336°
2026-05-06 00:04 27.41113 -80.79000 2516 ft 184 kts 336°
2026-05-06 00:04 27.42228 -80.79669 2511 ft 183 kts 335°
2026-05-06 00:04 27.43346 -80.80344 2510 ft 181 kts 335°
2026-05-06 00:05 27.45573 -80.81685 2511 ft 181 kts 336°
2026-05-06 00:05 27.46684 -80.82356 2514 ft 181 kts 337°
2026-05-06 00:05 27.47806 -80.83032 2515 ft 183 kts 335°
2026-05-06 00:06 27.48925 -80.83708 2512 ft 181 kts 335°
2026-05-06 00:06 27.50036 -80.84378 2515 ft 181 kts 336°
2026-05-06 00:06 27.51153 -80.85051 2514 ft 182 kts 336°
2026-05-06 00:06 27.52249 -80.85714 2511 ft 180 kts 335°
2026-05-06 00:07 27.53353 -80.86380 2505 ft 179 kts 336°
2026-05-06 00:07 27.54454 -80.87045 2508 ft 179 kts 334°
2026-05-06 00:07 27.55546 -80.87705 2514 ft 178 kts 335°
2026-05-06 00:07 27.56638 -80.88364 2512 ft 178 kts 336°
2026-05-06 00:08 27.57728 -80.89023 2514 ft 178 kts 336°
2026-05-06 00:08 27.58825 -80.89685 2512 ft 180 kts 335°
2026-05-06 00:08 27.59929 -80.90353 2511 ft 180 kts 336°
2026-05-06 00:08 27.61036 -80.91022 2511 ft 181 kts 335°
2026-05-06 00:09 27.62148 -80.91694 2511 ft 181 kts 336°
2026-05-06 00:09 27.63259 -80.92368 2511 ft 182 kts 335°
2026-05-06 00:09 27.64378 -80.93046 2514 ft 184 kts 335°
2026-05-06 00:09 27.65507 -80.93728 2508 ft 184 kts 335°
2026-05-06 00:10 27.66631 -80.94408 2514 ft 183 kts 335°
2026-05-06 00:10 27.67737 -80.95079 2514 ft 183 kts 336°
2026-05-06 00:10 27.68862 -80.95760 2514 ft 185 kts 335°
2026-05-06 00:10 27.69993 -80.96444 2511 ft 184 kts 335°
2026-05-06 00:11 27.71120 -80.97129 2513 ft 183 kts 336°
2026-05-06 00:11 27.72251 -80.97812 2512 ft 185 kts 336°
2026-05-06 00:11 27.73381 -80.98498 2517 ft 184 kts 335°
2026-05-06 00:11 27.74512 -80.99185 2517 ft 184 kts 335°
2026-05-06 00:12 27.75634 -80.99866 2517 ft 183 kts 335°
2026-05-06 00:12 27.76752 -81.00544 2519 ft 182 kts 335°
2026-05-06 00:12 27.77868 -81.01220 2515 ft 182 kts 336°
2026-05-06 00:12 27.78989 -81.01902 2520 ft 184 kts 335°
2026-05-06 00:13 27.80118 -81.02585 2509 ft 184 kts 336°
2026-05-06 00:13 27.81239 -81.03268 2514 ft 182 kts 335°
2026-05-06 00:13 27.82353 -81.03944 2505 ft 181 kts 336°
2026-05-06 00:13 27.83466 -81.04621 2508 ft 183 kts 336°
2026-05-06 00:14 27.84568 -81.05288 2503 ft 180 kts 335°
2026-05-06 00:14 27.85665 -81.05958 2512 ft 180 kts 336°
2026-05-06 00:14 27.86773 -81.06631 2510 ft 181 kts 335°
2026-05-06 00:14 27.87880 -81.07304 2510 ft 180 kts 335°
2026-05-06 00:15 27.88983 -81.07975 2507 ft 180 kts 336°
2026-05-06 00:15 27.90091 -81.08651 2519 ft 182 kts 335°
2026-05-06 00:15 27.91216 -81.09333 2518 ft 183 kts 335°
2026-05-06 00:15 27.92341 -81.10020 2522 ft 185 kts 336°
2026-05-06 00:16 27.93481 -81.10710 2519 ft 185 kts 336°
2026-05-06 00:16 27.94612 -81.11401 2518 ft 184 kts 336°
2026-05-06 00:16 27.95803 -81.11873 2510 ft 180 kts 347°
2026-05-06 00:16 27.96995 -81.12305 2508 ft 179 kts 345°
2026-05-06 00:17 27.98183 -81.12739 2519 ft 181 kts 345°
2026-05-06 00:17 27.99369 -81.13169 2510 ft 181 kts 346°
2026-05-06 00:17 28.00572 -81.13605 2515 ft 181 kts 346°
2026-05-06 00:17 28.01766 -81.14040 2514 ft 179 kts 345°
2026-05-06 00:18 28.02945 -81.14467 2516 ft 177 kts 346°
2026-05-06 00:18 28.04118 -81.14893 2516 ft 177 kts 346°
2026-05-06 00:18 28.05297 -81.15325 2512 ft 179 kts 346°
2026-05-06 00:18 28.06488 -81.15752 2518 ft 178 kts 345°
2026-05-06 00:19 28.07669 -81.16185 2518 ft 178 kts 346°
2026-05-06 00:19 28.08852 -81.16612 2522 ft 179 kts 347°
2026-05-06 00:19 28.10033 -81.17044 2518 ft 178 kts 346°
2026-05-06 00:19 28.11216 -81.17469 2516 ft 178 kts 346°
2026-05-06 00:20 28.12402 -81.17903 2517 ft 179 kts 346°
2026-05-06 00:20 28.13586 -81.18334 2531 ft 178 kts 346°
2026-05-06 00:20 28.14774 -81.18765 2536 ft 179 kts 346°
2026-05-06 00:20 28.15964 -81.19199 2539 ft 180 kts 345°
2026-05-06 00:21 28.17139 -81.19626 2532 ft 179 kts 345°
2026-05-06 00:21 28.18317 -81.20057 2536 ft 177 kts 346°
2026-05-06 00:21 28.19494 -81.20483 2542 ft 179 kts 346°
2026-05-06 00:21 28.20688 -81.20918 2541 ft 181 kts 346°
2026-05-06 00:22 28.21884 -81.21355 2537 ft 180 kts 347°
2026-05-06 00:22 28.22947 -81.22084 2532 ft 186 kts 313°
2026-05-06 00:22 28.23622 -81.23361 2543 ft 190 kts 303°
2026-05-06 00:22 28.24265 -81.24681 2549 ft 191 kts 301°
2026-05-06 00:23 28.24922 -81.25986 2550 ft 190 kts 302°
2026-05-06 00:23 28.25579 -81.27276 2561 ft 190 kts 302°
2026-05-06 00:23 28.26238 -81.28589 2554 ft 192 kts 302°
2026-05-06 00:23 28.26908 -81.29889 2556 ft 190 kts 302°
2026-05-06 00:24 28.27585 -81.31167 2556 ft 188 kts 302°
2026-05-06 00:24 28.28259 -81.32434 2551 ft 187 kts 302°
2026-05-06 00:24 28.28907 -81.33691 2553 ft 187 kts 302°
2026-05-06 00:24 28.29558 -81.34965 2551 ft 186 kts 302°
2026-05-06 00:25 28.30211 -81.36226 2551 ft 185 kts 302°
2026-05-06 00:25 28.30860 -81.37491 2549 ft 186 kts 302°
2026-05-06 00:25 28.31507 -81.38757 2550 ft 186 kts 302°
2026-05-06 00:25 28.32156 -81.40023 2550 ft 186 kts 301°
2026-05-06 00:26 28.32788 -81.41301 2550 ft 185 kts 303°
2026-05-06 00:26 28.33464 -81.42547 2549 ft 186 kts 303°
2026-05-06 00:26 28.34137 -81.43804 2547 ft 187 kts 303°
2026-05-06 00:26 28.34818 -81.45060 2548 ft 187 kts 303°
2026-05-06 00:27 28.35505 -81.46317 2550 ft 187 kts 303°
2026-05-06 00:27 28.36192 -81.47564 2549 ft 185 kts 304°
2026-05-06 00:27 28.36869 -81.48813 2551 ft 186 kts 303°
2026-05-06 00:27 28.37550 -81.50074 2547 ft 187 kts 303°
2026-05-06 00:28 28.38229 -81.51338 2553 ft 189 kts 303°
2026-05-06 00:28 28.38899 -81.52615 2552 ft 192 kts 303°
2026-05-06 00:28 28.39582 -81.53930 2555 ft 195 kts 303°
2026-05-06 00:28 28.40276 -81.55264 2468 ft 197 kts 303°
2026-05-06 00:29 28.40949 -81.56555 2329 ft 184 kts 303°
2026-05-06 00:29 28.41602 -81.57761 2200 ft 176 kts 309°
2026-05-06 00:29 28.42420 -81.58782 2063 ft 172 kts 317°
2026-05-06 00:29 28.43419 -81.59301 2027 ft 152 kts
2026-05-06 00:30 28.44291 -81.58817 2029 ft 137 kts 50°
2026-05-06 00:30 28.44817 -81.57966 2027 ft 128 kts 72°
2026-05-06 00:30 28.45159 -81.57058 2035 ft 124 kts 63°
2026-05-06 00:30 28.45581 -81.56201 2032 ft 127 kts 63°
2026-05-06 00:31 28.46041 -81.55330 2029 ft 129 kts 60°
2026-05-06 00:31 28.46478 -81.54448 2028 ft 129 kts 80°
2026-05-06 00:31 28.46548 -81.53450 2038 ft 128 kts 69°
2026-05-06 00:31 28.46957 -81.52527 2033 ft 131 kts 61°
2026-05-06 00:32 28.47493 -81.51720 2035 ft 125 kts 68°
2026-05-06 00:32 28.47857 -81.50811 2034 ft 126 kts 66°
2026-05-06 00:32 28.48215 -81.49904 2034 ft 126 kts 67°
2026-05-06 00:32 28.48456 -81.49299 2037 ft 126 kts 68°
2026-05-06 00:33 28.48806 -81.48379 2035 ft 126 kts 67°
2026-05-06 00:33 28.49265 -81.47169 2047 ft 129 kts 68°
2026-05-06 00:33 28.49620 -81.46233 2041 ft 128 kts 70°
2026-05-06 00:33 28.49855 -81.45606 2042 ft 128 kts 67°
2026-05-06 00:34 28.50212 -81.44672 2042 ft 134 kts 68°
2026-05-06 00:34 28.50598 -81.43652 1894 ft 143 kts 68°
2026-05-06 00:34 28.50992 -81.42612 1709 ft 143 kts 67°
2026-05-06 00:34 28.51384 -81.41574 1519 ft 141 kts 68°
2026-05-06 00:35 28.51771 -81.40566 1334 ft 137 kts 69°
2026-05-06 00:35 28.52137 -81.39607 1162 ft 123 kts 68°
2026-05-06 00:35 28.52444 -81.38781 1014 ft 106 kts 67°
2026-05-06 00:35 28.52717 -81.38064 891 ft 87 kts 69°
2026-05-06 00:36 28.52938 -81.37482 785 ft 76 kts 68°
2026-05-06 00:36 28.53124 -81.36995 696 ft 65 kts 72°
2026-05-06 00:36 28.53309 -81.36501 623 ft 73 kts 70°
2026-05-06 00:36 28.53525 -81.35933 519 ft 78 kts 71°
2026-05-06 00:37 28.53730 -81.35392 419 ft 73 kts 69°
2026-05-06 00:37 28.53936 -81.34865 317 ft 72 kts 70°
2026-05-06 00:37 28.54128 -81.34353 219 ft 70 kts 71°
2026-05-06 00:37 28.54311 -81.33852 121 ft 67 kts 70°
2026-05-06 00:38 28.54471 -81.33436 114 ft 36 kts 44°
2026-05-06 00:38 28.54605 -81.33299 114 ft 22 kts 36°
2026-05-06 00:38 28.54656 -81.33270 114 ft 4 kts
2026-05-06 00:38 28.54699 -81.33230 115 ft 13 kts 65°
2026-05-06 00:39 28.54714 -81.33187 115 ft 0 kts 72°